Theta_e
326 318 315 316 317 315 314 312 309 313 321 321 322 326 330 333 333 332 335 336 337 339 343 343 343 341 340 342 342 344 348 355 355 352 350 350 352 356 357 359 365 366 366 368
318 313 318 318 316 314 311 310 310 316 324 323 322 322 329 332 331 333 333 336 336 338 341 342 341 341 341 342 344 346 349 355 357 355 355 355 356 356 358 358 362 366 366 368
313 316 319 317 314 310 311 308 309 310 317 324 320 322 324 329 332 333 335 336 337 337 338 340 340 340 341 343 344 347 351 354 358 360 357 358 360 360 358 358 359 361 365 367
315 319 315 313 311 312 307 311 310 311 312 310 318 309 322 327 328 330 332 334 335 337 339 340 342 342 342 343 347 349 352 354 356 361 360 360 354 351 353 356 357 358 363 364
312 312 311 310 311 312 309 314 314 315 313 312 311 311 316 326 325 328 331 333 335 337 338 339 340 343 345 346 346 348 351 354 357 359 361 356 357 354 355 356 361 364 364 365
315 319 314 313 313 312 313 312 313 315 313 306 308 311 312 318 320 329 333 334 335 336 338 339 341 342 343 345 346 346 349 352 356 357 359 359 358 357 353 356 356 357 358 358
312 311 314 313 311 313 312 311 306 303 305 304 312 312 315 323 324 328 332 335 337 338 338 339 340 340 342 342 344 344 348 352 355 355 357 358 359 359 357 358 355 355 354 354
308 306 313 315 313 311 312 312 306 298 303 306 314 308 315 326 328 329 332 333 336 338 339 339 341 342 342 342 343 346 349 353 351 354 357 361 360 355 354 356 354 350 354 355
310 308 315 315 316 315 312 310 313 307 308 305 309 314 324 326 330 331 332 335 335 337 338 340 343 343 344 344 344 344 350 354 353 350 353 355 356 358 354 362 356 354 359 356
313 308 314 315 315 314 313 313 307 308 301 299 306 309 314 322 325 327 327 329 335 338 340 343 341 343 344 345 346 346 347 347 348 346 348 351 352 355 357 357 358 360 361 363
315 312 312 315 312 311 312 311 311 310 308 303 302 306 323 325 325 325 329 334 336 337 340 344 344 345 345 345 345 345 347 348 348 348 348 350 353 355 358 357 359 361 363 365
316 313 309 310 313 314 313 311 312 307 306 309 307 309 323 328 330 331 331 334 339 341 342 345 346 347 346 347 348 347 348 349 350 352 353 350 354 357 355 358 359 361 362 365
316 313 306 308 311 314 312 312 313 311 311 306 305 311 326 328 330 334 332 335 340 342 343 344 345 346 347 347 350 349 350 350 352 352 351 352 353 355 356 357 359 360 362 364
318 313 309 305 308 312 309 310 311 312 308 309 308 311 321 326 329 331 334 335 339 341 342 343 344 345 347 348 348 349 347 352 351 352 353 354 355 356 356 358 360 361 363 363
316 310 312 311 311 310 310 310 311 310 311 308 310 311 315 320 325 329 330 337 338 340 340 341 342 344 346 347 348 351 351 352 354 356 355 356 359 360 361 361 361 362 363 363
317 312 312 309 311 310 308 310 311 311 312 311 311 311 318 323 333 331 331 335 337 339 340 341 343 345 344 346 347 348 350 351 352 352 353 357 360 360 359 361 362 363 362 363
314 312 310 306 310 310 306 310 311 311 313 312 308 314 325 327 329 332 333 338 338 339 339 341 343 344 346 346 350 346 347 350 352 353 356 356 357 356 359 360 360 360 359 360
315 314 312 307 310 301 311 315 314 311 313 315 315 318 326 329 334 337 340 339 338 338 338 340 341 342 344 345 344 346 347 350 351 351 349 350 352 354 354 357 356 355 355 355
317 315 310 305 305 308 309 312 312 311 312 319 319 320 329 332 335 336 340 340 338 338 337 337 339 341 343 342 344 343 341 340 340 340 343 346 349 350 351 351 353 352 353 353
316 316 311 308 302 300 310 315 318 318 309 323 322 326 329 330 321 328 336 336 333 333 334 335 337 337 339 340 338 337 335 335 334 336 337 340 341 343 347 350 350 351 354 352
309 311 308 308 305 308 315 317 322 308 313 324 326 329 330 325 326 330 333 334 334 331 334 337 335 334 334 335 334 332 334 332 335 336 337 338 339 339 340 343 348 349 349 349
310 309 307 309 306 303 318 317 315 320 323 325 328 330 330 328 328 329 330 330 330 332 333 332 330 330 332 333 332 331 330 332 332 333 333 333 334 333 334 338 340 343 345 346
309 314 311 311 311 322 321 321 325 324 324 327 329 331 331 327 327 329 328 329 330 331 331 330 329 331 331 332 332 329 330 330 330 330 330 330 332 332 331 330 332 332 337 335
317 320 315 316 318 318 321 323 325 326 325 326 330 331 331 328 328 328 328 329 330 331 330 329 329 328 329 330 329 329 330 330 329 328 328 329 328 326 329 329 328 326 327 328
316 319 316 316 319 322 324 325 326 326 326 326 329 331 330 329 328 328 328 330 331 330 330 330 329 328 327 328 327 327 328 329 328 328 327 327 326 326 326 327 327 326 328 322
319 316 314 313 320 320 322 326 327 325 325 327 328 328 329 329 328 329 329 331 331 330 330 329 328 326 326 326 327 330 330 330 328 327 326 325 324 324 324 324 325 315 312 309
Wind_Speed
3 10 9 11 11 11 15 13 11 7 6 5 4 10 14 15 13 15 15 17 18 18 17 18 19 20 20 19 18 16 13 11 9 9 8 8 8 7 7 7 5 5 5 6
10 13 9 7 6 12 9 9 6 8 4 7 2 5 11 14 13 14 16 16 17 18 19 18 21 22 21 19 17 16 15 13 11 9 8 7 7 8 7 6 6 6 5 5
10 14 12 13 11 10 8 6 10 9 1 4 6 9 9 11 11 12 14 16 17 20 21 22 23 23 22 21 21 18 16 15 13 12 8 6 6 5 6 7 7 8 8 8
9 7 9 10 11 11 14 7 5 7 9 4 7 7 10 13 15 14 15 16 19 21 22 22 23 25 25 23 20 18 17 16 14 13 10 12 9 9 7 7 6 6 9 9
4 5 8 13 12 6 6 4 5 5 6 6 5 4 9 11 13 15 18 19 20 22 23 23 24 24 24 22 19 18 18 16 16 14 14 11 12 9 7 7 6 8 8 9
16 15 8 12 7 7 1 4 3 3 5 4 5 8 11 5 4 15 18 19 19 19 21 21 21 21 21 20 19 18 18 18 17 16 15 15 14 11 9 8 8 8 8 8
9 9 5 7 10 5 9 14 5 6 6 10 4 6 10 8 8 5 14 16 17 17 17 18 20 20 19 19 20 19 19 17 17 18 17 18 17 15 14 12 10 10 8 7
6 13 5 2 5 9 5 11 6 4 1 11 2 3 8 5 6 8 8 7 9 11 12 14 17 18 19 19 20 17 16 16 17 17 18 15 15 12 12 12 12 10 10 9
4 6 6 4 2 6 5 8 10 6 3 8 7 7 10 9 12 11 11 10 11 7 5 6 12 15 16 17 19 19 15 13 14 17 14 15 15 16 13 12 12 11 11 9
3 5 4 7 4 5 7 5 7 7 4 6 9 4 11 14 13 10 11 11 11 9 9 10 7 6 8 12 14 16 16 16 15 15 14 14 15 15 14 13 14 13 12 12
4 5 4 7 5 9 4 9 3 5 5 7 8 6 12 13 11 11 11 10 10 10 11 10 10 9 9 8 8 11 13 15 15 16 15 15 13 14 13 13 14 14 13 12
2 8 7 10 4 2 2 6 11 8 8 2 10 9 8 6 8 7 8 9 10 9 10 11 12 12 11 9 7 7 8 10 11 11 11 9 12 13 13 13 14 13 13 13
5 4 8 7 12 7 2 3 3 6 7 5 10 8 6 9 6 5 8 10 9 9 9 12 12 12 10 9 7 7 6 6 7 8 12 13 13 13 13 13 14 14 14 14
3 5 7 8 10 6 3 2 4 10 6 3 9 5 10 9 9 7 6 7 9 8 8 10 12 11 9 7 6 5 4 2 5 5 6 7 10 10 11 12 13 14 14 14
7 9 1 1 3 5 8 9 8 10 9 10 10 3 5 2 1 3 3 8 9 8 8 8 9 9 7 6 4 2 2 3 4 2 5 6 7 8 9 10 11 12 13 13
7 6 5 9 6 9 12 13 13 13 13 14 14 16 8 3 1 4 7 12 11 10 9 9 9 8 7 7 5 5 5 5 3 3 3 5 5 7 9 10 9 10 11 12
9 8 7 11 5 10 13 18 18 16 12 10 12 9 7 4 4 7 9 11 10 10 10 10 10 10 9 8 7 7 5 5 4 4 5 5 3 5 7 8 9 10 10 11
9 9 8 10 11 15 11 4 9 12 12 10 13 3 2 6 8 8 10 12 12 11 10 9 9 9 10 9 9 7 7 6 5 5 5 6 6 5 4 6 7 8 9 10
10 10 9 9 12 14 14 12 10 10 11 9 12 8 9 11 14 11 10 11 11 10 9 9 10 9 8 8 7 7 8 8 8 9 9 9 9 8 8 7 4 6 8 8
10 12 11 8 12 12 4 8 8 5 12 11 10 11 14 13 10 10 11 10 10 9 8 8 9 9 9 8 8 7 8 8 8 9 9 10 10 10 9 9 8 8 6 7
9 11 14 12 11 9 6 4 7 13 4 10 12 13 15 9 9 18 14 11 10 9 9 9 9 10 9 7 6 6 6 7 7 7 8 8 9 10 10 10 9 9 9 9
14 9 11 12 13 14 5 8 15 4 4 9 11 13 14 10 12 15 14 12 11 10 9 8 8 8 8 7 5 5 6 6 7 8 9 9 9 9 9 11 10 10 10 11
17 16 11 10 8 5 4 14 12 4 2 8 13 15 16 13 13 14 12 11 9 9 7 6 7 7 6 6 7 6 6 7 8 8 8 8 9 9 9 10 11 10 10 8
17 11 12 10 12 12 8 7 10 8 5 4 8 14 15 13 14 13 12 10 9 8 7 6 5 5 6 6 6 6 6 7 8 7 7 6 8 7 8 8 8 8 9 9
6 11 15 14 15 2 9 11 9 9 8 7 10 15 15 12 12 12 11 9 8 8 6 6 5 5 6 6 6 7 7 7 8 8 8 8 7 8 8 7 8 9 9 9
10 11 10 11 13 13 11 5 6 8 10 10 13 14 13 13 13 11 9 8 8 7 6 5 5 6 6 6 6 6 7 9 10 10 7 7 7 8 8 8 8 5 11 11
Wind_Direction
166 282 278 352 343 330 312 309 317 33 116 245 197 151 174 177 176 163 174 179 180 188 176 177 188 187 191 197 187 196 214 201 199 199 204 207 219 222 232 236 225 228 242 243
243 251 23 349 304 302 311 302 356 106 115 202 166 140 165 182 188 179 174 185 182 185 180 183 188 196 200 198 204 207 214 208 208 208 214 223 225 228 230 227 220 230 243 241
273 297 311 307 309 314 277 314 348 343 313 204 228 131 159 196 204 190 189 186 190 191 190 190 193 196 202 207 208 212 213 216 215 231 209 207 236 239 225 226 226 221 229 235
278 306 304 302 301 296 295 14 313 305 295 25 338 110 136 167 194 196 195 194 196 199 202 195 200 204 209 211 212 216 213 212 214 216 225 217 225 229 227 233 225 230 225 232
112 300 298 284 298 301 14 11 329 308 265 253 112 261 101 153 180 194 203 199 205 202 205 207 206 209 213 210 209 212 212 212 218 205 223 216 228 242 237 235 236 222 237 226
266 288 280 282 290 276 275 235 236 224 260 191 56 290 98 94 122 178 193 208 209 208 207 214 213 213 214 212 210 208 206 210 208 213 210 224 236 238 252 227 233 231 226 213
215 207 200 235 246 209 233 252 230 203 196 54 78 236 53 84 106 107 173 197 207 213 209 212 219 213 213 213 210 212 204 206 210 213 215 218 228 231 237 236 236 253 230 219
265 154 176 106 300 333 323 321 318 277 343 108 164 122 86 74 103 127 116 136 171 196 211 217 216 220 215 204 213 208 210 202 207 212 219 223 228 231 233 232 239 237 233 220
226 130 126 51 345 295 116 240 19 292 180 262 94 113 132 128 119 116 117 119 103 98 135 196 209 208 213 207 203 205 207 201 208 213 220 228 229 235 246 243 237 241 233 232
87 272 121 114 232 109 303 359 233 203 268 289 132 214 111 140 130 128 103 100 94 90 73 70 66 128 171 195 196 199 202 209 211 215 218 225 230 232 241 243 236 243 244 230
285 262 129 234 28 343 234 215 217 313 312 307 239 139 114 145 135 119 120 110 90 83 81 83 89 97 111 129 160 186 197 206 213 214 221 226 230 230 228 237 234 235 236 232
50 309 287 1 87 342 318 320 273 281 163 318 313 92 127 126 131 119 114 107 92 80 88 94 95 100 109 116 141 163 181 203 215 222 219 238 235 243 234 229 239 225 227 222
163 243 289 168 172 178 254 49 305 277 283 229 298 99 120 145 148 109 127 119 111 107 115 110 102 95 101 106 116 143 168 189 237 208 213 212 226 225 232 236 232 232 220 220
238 275 299 326 3 5 217 232 313 292 272 245 241 46 144 167 161 144 141 135 118 115 110 108 108 104 104 106 119 140 191 218 190 242 217 229 235 235 239 236 233 232 225 221
267 267 286 326 285 281 302 290 274 272 299 293 296 235 285 168 69 98 177 163 146 132 104 98 93 100 115 114 115 124 17 4 3 246 245 235 247 250 244 251 247 239 238 233
217 259 241 268 234 255 272 274 266 266 270 273 268 268 283 70 189 160 188 174 154 128 116 101 93 92 86 87 83 74 59 31 356 341 324 313 268 256 261 260 250 251 253 249
237 237 236 267 285 284 265 252 253 257 256 252 257 263 116 149 140 124 145 148 130 124 113 103 91 83 69 80 78 66 57 48 42 39 32 22 323 285 279 268 264 261 259 261
220 241 262 272 279 256 274 342 291 280 268 242 259 240 179 113 118 126 130 128 124 118 110 102 95 86 74 65 61 57 56 50 39 30 14 4 349 338 329 299 278 277 269 258
236 244 255 252 244 257 270 254 225 213 234 218 242 193 158 142 128 110 116 119 118 115 105 93 86 83 72 65 65 61 51 42 31 19 13 4 355 341 328 310 267 247 250 255
234 236 244 204 259 261 303 349 195 227 255 181 201 172 165 168 188 129 149 138 120 102 99 96 91 89 88 77 71 63 49 31 17 4 354 349 346 338 327 318 303 295 284 261
187 207 216 223 251 260 255 243 177 216 103 155 178 169 166 181 52 130 139 130 123 115 107 92 81 83 78 66 61 54 41 18 355 339 330 330 330 324 312 315 311 298 286 281
201 214 216 242 253 250 179 183 204 247 133 157 178 172 165 117 127 136 137 136 134 122 115 111 104 94 77 52 37 40 27 355 338 329 323 323 318 313 313 309 302 300 293 284
237 232 242 213 220 147 221 228 203 7 15 191 181 175 167 152 146 144 142 137 131 129 117 108 120 113 86 50 26 9 11 346 333 327 328 324 323 316 315 299 296 289 274 268
204 244 253 227 235 232 222 244 248 246 259 256 214 180 174 167 153 150 148 141 138 135 124 119 119 67 55 25 12 1 348 335 323 321 314 313 308 335 306 305 295 294 291 286
249 170 228 241 243 268 242 252 258 247 232 237 208 177 181 174 155 156 149 138 129 125 120 93 62 48 37 10 359 355 346 337 324 317 312 307 323 331 319 316 317 310 303 326
229 244 229 237 248 227 258 273 242 225 200 181 168 166 171 161 156 155 142 134 132 129 126 104 71 43 23 10 7 1 341 337 331 320 319 334 320 324 325 329 326 246 240 277